Regional Weather Roundup
Issued by NWS Wilmington, NC

Home | Current Version | Previous Version | Text Only | Print | Product List | Glossary On
Versions: 1 2 3 4 5 6 7 8 9 10 11 12 13 14 15 16 17 18 19 20 21 22 23 24 25 26 27 28 29 30 31 32 33 34 35 36 37 38 39 40 41 42 43 44 45 46 47 48 49 50
000
ASUS42 KILM 301913
RWRILM
RWRILM
REGIONAL HOURLY WEATHER ROUNDUP
NATIONAL WEATHER SERVICE WILMINGTON NC
300 PM EDT SUN AUG 30 2015

NOTE: "FAIR" INDICATES FEW OR NO CLOUDS BELOW 12,000 FEET WITH NO
SIGNIFICANT WEATHER AND/OR OBSTRUCTIONS TO VISIBILITY.

...............WFO WILMINGTON COUNTY WARNING AREA...............

......COASTAL NC AND SC COUNTIES......

CITY           SKY/WX    TMP DP  RH WIND       PRES   REMARKS
WILMINGTON     PTSUNNY   82  63  52 SE7       30.14F
N MYRTLE BEACH CLOUDY    80  72  76 SE9       30.13F
MYRTLE BEACH   PTSUNNY   79  72  78 SE12      30.15F FOG

......INLAND NC AND SC COUNTIES.......

CITY           SKY/WX    TMP DP  RH WIND       PRES   REMARKS
LUMBERTON      CLOUDY    81  63  54 S5        30.13F
ELIZABETHTOWN  CLOUDY    82  64  53 SE6       30.14S
WHITEVILLE     LGT RAIN  77  68  74 CALM      30.14S
FLORENCE       LGT RAIN  77  73  87 E7        30.14F
DARLINGTON     CLOUDY    79  66  65 E5        30.15F

....................REST OF NORTH CAROLINA......................

.........EASTERN NC.........

CITY           SKY/WX    TMP DP  RH WIND       PRES   REMARKS
CAPE HATTERAS  CLOUDY    82  72  71 NE7       30.11F
JACKSONVILLE   PTSUNNY   84  61  45 E6        30.13F
MOREHEAD CITY  PTSUNNY   81  68  64 E3        30.12F
KENANSVILLE      N/A     83  61  46 SE3       30.13F
NEW BERN       PTSUNNY   85  62  46 VRB6      30.13F
ELIZABETH CITY MOSUNNY   84  66  54 SE10      30.11F

.........CENTRAL NC.........

CITY           SKY/WX    TMP DP  RH WIND       PRES   REMARKS
RALEIGH DURHAM CLOUDY    85  58  39 SE3       30.13F
ROCKY MOUNT    CLOUDY    90  56  31 VRB6      30.11F
ROANOKE RAPIDS NOT AVBL
FAYETTEVILLE   CLOUDY    82  62  50 SE3       30.13F
HOFFMAN        CLOUDY    79  64  58 SE6       30.14S

.........WESTERN NC.........

CITY           SKY/WX    TMP DP  RH WIND       PRES   REMARKS
CHARLOTTE      CLOUDY    81  58  45 VRB3      30.16F
GREENSBORO     CLOUDY    81  61  50 W6        30.16F
HICKORY        NOT AVBL
BOONE          NOT AVBL
ASHEVILLE      NOT AVBL

.....................REST OF SOUTH CAROLINA.....................

.........EASTERN SC.........

CITY           SKY/WX    TMP DP  RH WIND       PRES   REMARKS
CHARLESTON     RAIN      74  71  91 SE10      30.13F
BEAUFORT MCAS  TSTM      74  73  97 S3        30.13S VSB 1
HILTON HEAD    RAIN      75  73  94 NE6       30.14R

.........CENTRAL SC.........

CITY           SKY/WX    TMP DP  RH WIND       PRES   REMARKS
COLUMBIA       RAIN      75  69  81 NE5       30.13F
ORANGEBURG     HVY RAIN  75  71  87 SE5       30.11F FOG
SUMTER SHAW    CLOUDY    80  70  70 NE9       30.10F

.........WESTERN SC.........

CITY           SKY/WX    TMP DP  RH WIND       PRES   REMARKS
GREENVILLE     NOT AVBL
ROCK HILL      CLOUDY    81  60  48 VRB3      30.15F
ANDERSON       CLOUDY    77  61  57 NE5       30.14F
CLEMSON        NOT AVBL
GREENWOOD      CLOUDY    78  65  63 E10       30.15F


...................COASTAL AND OFFSHORE REPORTS..................

................LOCAL PIERS AND NC RESERVE................


STATION/POSITION TIME  SKY/WX   TEMP    WIND        PRES    VSBY
                                AIR SEA DIR/SP/G
                 (UTC)          (F)     (DEG/KT/KT) (MB)    (MI)
JOHNY MRCER PIER NOT AVBL
NC RESRV MASNBRO NOT AVBL
OCEAN CREST PIER NOT AVBL
SPRINGMAID  PIER NOT AVBL


................COASTAL AND OFFSHORE BUOYS................


STATION/POSITION TIME  SKY/WX   TEMP    WIND        PRES    VSBY
                                AIR SEA DIR/SP/G
                 (UTC)          (F)     (DEG/KT/KT) (MB)    (MI)
DIMNDSHOAL 41025 1850            79 82   40/  8/ 10 1019.8F
WVE H/P(F/S)=  3/10 WND WVE H/P(F/S)=  2/ 4 SWL H/P/D(F/S/D)=  3/ 80/10

CAPE LOOKOUT     1900            80      80/  4/  5 1019.9F
ONSLOW BAY 41036 NOT AVBL
ONSLOW BAY 41064 1808            80 81   90/  6/ 10 1021.1F
ONSLOW BAY 41159 1825               82                N/A
WVE H/P(F/S)=  4/10 WND WVE H/P(F/S)=  3/10 SWL H/P/D(F/S/D)=  2/120/11

5SE WRITBC 41038 1808            80 82  100/  6/ 10 1021.1S
MASNBO INL 41110 1819               82                N/A
WVE H/P(F/S)=  3/11 WND WVE H/P(F/S)=  2/10 SWL H/P/D(F/S/D)=  2/140/11

WILM HARBR 41108 1811               83                N/A
WVE H/P(F/S)=  3/ 9 WND WVE H/P(F/S)=  3/ 9 SWL H/P/D(F/S/D)=  2/150/11

27SE WRITB 41037 1800            76 82   90/  6/  8   N/A
FRYING PAN 41013 1850            81 82   80/ 10/ 12 1020.7F
WVE H/P(F/S)=  5/10 WND WVE H/P(F/S)=  2/ 4 SWL H/P/D(F/S/D)=  5/150/10

SUNST NRSH 41024 1808            80     130/ 10/ 14 1020.8R
CAPRS NRSH 41029 NOT AVBL
EDISTO     41004 1850            77 84   10/  6/ 10 1020.1F
WVE H/P(F/S)=  5/11 WND WVE H/P(F/S)=  2/ 4 SWL H/P/D(F/S/D)=  5/11



..........OFFSHORE BUOYS BEYOND 100 NM OFFSHORE...........
.....IN A TRIANGLE---HAT TO BERMUDA TO BAHAMAS TO HAT.....


STATION/POSITION TIME  SKY/WX   TEMP    WIND        PRES    VSBY
                                AIR SEA DIR/SP/G
                 (UTC)          (F)     (DEG/KT/KT) (MB)    (MI)
150E HAT   41001 1900            82 83  270/  8/ 10 1019.5F
W BERMUDA  41048 1850            84 84  220/ 10/ 10 1021.2F
WVE H/P(F/S)=  4/ 9 WND WVE H/P(F/S)=  2/ 4 SWL H/P/D(F/S/D)=  3/130/ 9

ATLANTIC S 41049 1850            85 87   60/  8/ 10 1020.4F
WVE H/P(F/S)=  5/10 WND WVE H/P(F/S)=  2/ 4 SWL H/P/D(F/S/D)=  5/ 40/10

E BAHAMAS  41046 1850            84 86  120/ 14/ 16 1018.5F
WVE H/P(F/S)=  4/11 WND WVE H/P(F/S)=  3/ 5 SWL H/P/D(F/S/D)=  3/ 50/11

NE BAHAMAS 41047 1850            85 86  100/ 16/ 17 1019.1F
WVE H/P(F/S)=  5/11 WND WVE H/P(F/S)=  3/ 6 SWL H/P/D(F/S/D)=  3/ 60/11

120E CANVRL41010 1820            86 86  140/ 19/ 23 1018.2R

END


USA.gov is the U.S. government's official web portal to all federal, state and local government web resources and services.